Regional Weather Roundup
Issued by NWS

Home | Current Version | Previous Version | Text Only | Print | Product List | Glossary On
Versions: 1 2 3 4 5 6 7 8 9 10 11 12 13 14 15 16 17 18 19 20 21 22 23 24 25 26 27 28 29 30 31 32 33 34 35 36 37 38 39 40 41 42 43 44 45 46 47 48 49 50
000
ASUS46 KPQR 010010
RWROR

OREGON REGIONAL WEATHER ROUNDUP
NATIONAL WEATHER SERVICE PORTLAND OR
500 PM PDT MON AUG 31 2015

NOTE: "FAIR" INDICATES FEW OR NO CLOUDS BELOW 12,000 FEET WITH
NO SIGNIFICANT WEATHER AND/OR OBSTRUCTIONS TO VISIBILITY.

ORZ001>013-010100-
NORTHWEST OREGON


CITY           SKY/WX    TMP DP  RH WIND       PRES   REMARKS
ASTORIA        CLOUDY    65  60  84 SW13G22   29.97F
6HR MIN TEMP:  63; 6HR MAX TEMP:  67; 6HR PCP: TRACE;

NEWPORT        PTSUNNY   64  57  77 SW7       30.04F
PORTLAND       PTSUNNY   74  52  46 SW10      29.96F
6HR MIN TEMP:  67; 6HR MAX TEMP:  74;

VANCOUVER WA   PTSUNNY   72  51  47 SW5       29.96F
6HR MIN TEMP:  67; 6HR MAX TEMP:  74;

SCAPPOOSE      PTSUNNY   75  52  44 W6        29.95F
6HR MIN TEMP:  65; 6HR MAX TEMP:  76;

HILLSBORO      CLOUDY    73  51  46 W12       29.96F
6HR MIN TEMP:  66; 6HR MAX TEMP:  73;

AURORA         CLOUDY    72  53  51 W6        29.98F
6HR MIN TEMP:  68; 6HR MAX TEMP:  73;

MCMINNVILLE    PTSUNNY   71  52  50 W10       29.98F
6HR MIN TEMP:  67; 6HR MAX TEMP:  73;

SALEM          CLOUDY    74  53  48 NW9       29.97F
6HR MIN TEMP:  68; 6HR MAX TEMP:  76;

CORVALLIS      CLOUDY    72  54  53 N9        30.00S
EUGENE         PTSUNNY   76  51  41 N9        29.97F
6HR MIN TEMP:  67; 6HR MAX TEMP:  80;

$$

ORZ021-028-010100-
SOUTHWEST OREGON


CITY           SKY/WX    TMP DP  RH WIND       PRES   REMARKS
NORTH BEND     MOSUNNY   70  61  73 NW8       30.03F
6HR MIN TEMP:  70; 6HR MAX TEMP:  72;

BROOKINGS      SUNNY     71  59  66 NW14G20   29.98F
ROSEBURG       SUNNY     81  51  35 N9        29.95F
6HR MIN TEMP:  61; 6HR MAX TEMP:  82;

SEXTON SUMMIT  SUNNY     69  46  43 VRB5      30.05F
6HR MIN TEMP:  59; 6HR MAX TEMP:  71;

MEDFORD        SUNNY     85  44  23 NW9       29.91F
6HR MIN TEMP:  67; 6HR MAX TEMP:  86;

$$

ORZ014>016-041-010100-
COLUMBIA GORGE


CITY           SKY/WX    TMP DP  RH WIND       PRES   REMARKS
TROUTDALE      CLOUDY    74  52  46 W7        29.96F
6HR MIN TEMP:  68; 6HR MAX TEMP:  74;

THE DALLES     MOSUNNY   76  49  38 NW22G30   29.90F
6HR MIN TEMP:  70; 6HR MAX TEMP:  79;

$$

ORZ029>031-041-044-049-050-061>064-502-503-505>511-010100-
EASTERN OREGON


CITY           SKY/WX    TMP DP  RH WIND       PRES   REMARKS
REDMOND        SUNNY     77  36  22 NW15      29.95F
6HR MIN TEMP:  63; 6HR MAX TEMP:  79;

BEND           SUNNY     77  39  25 N10       29.96F
PRINEVILLE     NOT AVBL
KLAMATH FALLS  SUNNY     80  42  25 W10       29.99F
6HR MIN TEMP:  62; 6HR MAX TEMP:  80;

LAKEVIEW       SUNNY     81  30  16 SW6       29.99F
HERMISTON      CLOUDY    80  47  31 W13       29.86F
6HR MIN TEMP:  72; 6HR MAX TEMP:  81;

PENDLETON      PTSUNNY   77  44  30 NW9       29.89F
6HR MIN TEMP:  69; 6HR MAX TEMP:  78;

JOHN DAY       SUNNY     78  43  28 W8        29.95F
MEACHAM        MOSUNNY   69  42  37 CALM      29.98F
6HR MIN TEMP:  62; 6HR MAX TEMP:  73;

LA GRANDE      PTSUNNY   77  41  27 CALM      29.91F
6HR MIN TEMP:  66; 6HR MAX TEMP:  79;

BAKER CITY     MOSUNNY   77  45  32 NE12G21   29.93F
6HR MIN TEMP:  65; 6HR MAX TEMP:  78;

BURNS          SUNNY     77  37  23 S8        29.98F
6HR MIN TEMP:  63; 6HR MAX TEMP:  78;

ROME             N/A     86  27  11 MISG      29.94F
6HR MIN TEMP:  69; 6HR MAX TEMP:  86;

ONTARIO        MOSUNNY   81  44  27 VRB3      29.91F
6HR MIN TEMP:  71; 6HR MAX TEMP:  83;

$$


USA.gov is the U.S. government's official web portal to all federal, state and local government web resources and services.